CW9887 Weather Reports


Display with metric or nautical units.
time (UTC)temp
F
wind
direction
speed
MPH
gust
MPH
rain 1hr
in
rain 24hr
in
rain mn
in
humidity
%
barometer
mb
20180820031747 61 225 0.0 0.0 0.00 0.00 0.00 93 1020.7
20180820031628 60 225 0.0 0.0 0.00 0.00 0.00 93 1020.3
20180820030748 61 225 0.0 0.0 0.00 0.00 0.00 93 1020.9
20180820025919 60 225 0.0 0.0 0.00 0.00 0.00 93 1020.4
20180820025748 61 225 0.0 0.0 0.00 0.00 0.00 93 1021.0
20180820024753 61 223 0.0 0.0 0.00 0.00 0.00 93 1021.0
20180820024417 60 223 0.0 0.0 0.00 0.00 0.00 93 1020.4
20180820023753 61 223 0.0 0.0 0.00 0.00 0.00 92 1020.5
20180820022928 61 223 0.0 0.0 0.00 0.00 0.00 92 1020.0
20180820022752 61 273 0.0 0.0 0.00 0.00 0.00 92 1020.7
20180820021757 61 273 0.0 0.0 0.00 0.00 0.00 91 1020.4
20180820021405 61 273 0.0 0.0 0.00 0.00 0.00 91 1019.8
20180820020740 61 273 0.0 0.0 0.00 0.00 0.00 90 1020.5
20180820015914 61 273 0.0 0.0 0.00 0.00 0.00 90 1019.9
20180820015741 61 273 0.0 0.0 0.00 0.00 0.00 90 1020.5
20180820014747 62 273 0.0 0.0 0.00 0.00 0.00 90 1020.6
20180820014416 61 273 0.0 0.0 0.00 0.00 0.00 90 1020.0
20180820013751 62 273 0.0 0.0 0.00 0.00 0.00 89 1020.5
20180820012927 61 273 0.0 0.0 0.00 0.00 0.00 90 1019.8
20180820012755 62 272 0.0 0.0 0.00 0.00 0.00 89 1020.4
20180820011758 62 272 0.0 0.0 0.00 0.00 0.00 89 1020.5
20180820011424 62 273 1.0 0.0 0.00 0.00 0.00 89 1019.8
20180820010758 62 272 0.0 0.0 0.00 0.00 0.00 88 1020.4
20180820005928 62 273 0.0 0.0 0.00 0.00 0.00 87 1019.9
20180820005755 63 273 0.0 0.0 0.00 0.00 0.00 87 1020.5
20180820004739 63 273 1.0 0.0 0.00 0.00 0.00 86 1020.3
20180820004308 63 169 0.0 0.0 0.00 0.00 0.00 85 1019.7
20180820003742 63 131 1.0 0.0 0.00 0.00 0.00 85 1020.3
20180820002915 63 135 1.0 0.0 0.00 0.00 0.00 84 1019.8
20180820002743 64 140 1.0 0.0 0.00 0.00 0.00 84 1020.3
20180820001749 64 140 1.0 0.0 0.00 0.00 0.00 84 1020.2
20180820001322 64 117 1.0 0.0 0.00 0.00 0.00 84 1019.5
20180820000753 64 128 1.0 0.0 0.00 0.00 0.00 84 1019.9
20180819235924 64 167 2.0 0.0 0.00 0.00 0.00 84 1019.2
20180819235754 65 117 2.0 0.0 0.00 0.00 0.00 84 1019.7
20180819234739 65 123 2.0 0.0 0.00 0.00 0.00 83 1019.5
20180819234311 65 121 2.0 0.0 0.00 0.00 0.00 83 1019.0
20180819233748 66 126 3.0 0.0 0.00 0.00 0.00 82 1019.4
20180819232918 66 113 3.0 0.0 0.00 0.00 0.00 82 1018.8
20180819232746 66 132 3.0 0.0 0.00 0.00 0.00 82 1019.4
20180819231750 67 118 2.0 0.0 0.00 0.00 0.00 81 1019.1
20180819231315 66 103 2.0 0.0 0.00 0.00 0.00 80 1018.5
20180819230749 67 117 2.0 0.0 0.00 0.00 0.00 79 1019.1
20180819225750 68 122 2.0 0.0 0.00 0.00 0.00 79 1018.8
20180819225714 67 122 2.0 0.0 0.00 0.00 0.00 79 1018.3
20180819224752 68 124 3.0 0.0 0.00 0.00 0.00 78 1018.8
20180819224220 68 121 2.0 0.0 0.00 0.00 0.00 76 1018.2
20180819223754 69 109 2.0 0.0 0.00 0.00 0.00 75 1018.7
20180819222754 70 123 4.0 0.0 0.00 0.00 0.00 72 1018.6
20180819222705 70 134 4.0 0.0 0.00 0.00 0.00 72 1018.0
20180819221740 71 139 3.0 0.0 0.00 0.00 0.00 66 1018.6
20180819221208 71 90 3.0 0.0 0.00 0.00 0.00 65 1017.8
20180819220743 72 117 3.0 0.0 0.00 0.00 0.00 65 1018.3
20180819215919 71 90 3.0 0.0 0.00 0.00 0.00 66 1017.5
20180819215744 72 105 3.0 0.0 0.00 0.00 0.00 66 1018.0
20180819214750 72 98 3.0 0.0 0.00 0.00 0.00 66 1018.1
20180819214221 71 117 2.0 0.0 0.00 0.00 0.00 67 1017.5
20180819213758 72 63 2.0 0.0 0.00 0.00 0.00 64 1018.1
20180819212736 72 89 2.0 0.0 0.00 0.00 0.00 63 1018.0
20180819212624 71 95 2.0 0.0 0.00 0.00 0.00 61 1017.4
20180819211742 72 74 3.0 0.0 0.00 0.00 0.00 61 1017.9
20180819211204 72 108 3.0 0.0 0.00 0.00 0.00 61 1017.3
20180819210745 72 88 3.0 0.0 0.00 0.00 0.00 61 1017.8
20180819205744 73 103 5.0 0.0 0.00 0.00 0.00 58 1017.8
20180819205610 73 117 4.0 0.0 0.00 0.00 0.00 61 1017.2
20180819204748 74 91 3.0 0.0 0.00 0.00 0.00 56 1017.7
20180819204115 74 85 5.0 0.0 0.00 0.00 0.00 58 1017.2
20180819203749 74 113 4.0 0.0 0.00 0.00 0.00 57 1017.7
20180819202752 75 67 4.0 0.0 0.00 0.00 0.00 60 1017.7
20180819202625 74 53 4.0 0.0 0.00 0.00 0.00 58 1017.1
20180819201757 73 78 5.0 0.0 0.00 0.00 0.00 61 1017.6
20180819201106 73 84 4.0 0.0 0.00 0.00 0.00 58 1016.9
20180819200757 74 88 4.0 0.0 0.00 0.00 0.00 57 1017.5
20180819195738 75 74 7.0 0.0 0.00 0.00 0.00 58 1017.5
20180819195613 74 84 7.0 0.0 0.00 0.00 0.00 60 1016.9
20180819194747 75 59 5.0 0.0 0.00 0.00 0.00 59 1017.4
20180819194116 74 60 4.0 0.0 0.00 0.00 0.00 61 1016.9
20180819193747 75 124 5.0 0.0 0.00 0.00 0.00 60 1017.6
20180819192746 75 113 7.0 0.0 0.00 0.00 0.00 60 1017.6
20180819192609 75 67 6.0 0.0 0.00 0.00 0.00 60 1017.1
20180819191751 75 109 4.0 0.0 0.00 0.00 0.00 61 1017.8
20180819191113 73 93 5.0 0.0 0.00 0.00 0.00 60 1017.1
20180819190752 74 22 6.0 0.0 0.00 0.00 0.00 58 1017.8
20180819185753 75 80 5.0 0.0 0.00 0.00 0.00 55 1017.8
20180819185616 75 96 4.0 0.0 0.00 0.00 0.00 60 1017.2
20180819184758 75 110 4.0 0.0 0.00 0.00 0.00 64 1017.8
20180819184106 74 88 4.0 0.0 0.00 0.00 0.00 62 1017.1
20180819183739 75 80 4.0 0.0 0.00 0.00 0.00 61 1017.7
20180819182741 74 78 3.0 0.0 0.00 0.00 0.00 60 1017.6
20180819182611 73 90 2.0 0.0 0.00 0.00 0.00 63 1017.0
20180819181749 73 52 3.0 0.0 0.00 0.00 0.00 62 1017.6
20180819181118 74 83 4.0 0.0 0.00 0.00 0.00 60 1017.0
20180819180751 74 27 5.0 0.0 0.00 0.00 0.00 62 1017.6
20180819175751 74 97 6.0 0.0 0.00 0.00 0.00 58 1017.5
20180819175618 74 96 6.0 0.0 0.00 0.00 0.00 58 1017.0
20180819174800 74 105 8.0 0.0 0.00 0.00 0.00 58 1017.4
20180819173935 73 76 8.0 0.0 0.00 0.00 0.00 58 1017.1
20180819173800 73 72 8.0 0.0 0.00 0.00 0.00 59 1017.7
20180819172741 73 86 7.0 0.0 0.00 0.00 0.00 59 1017.8
20180819172605 72 74 7.0 0.0 0.00 0.00 0.00 61 1017.2
20180819171746 73 61 6.0 0.0 0.00 0.00 0.00 60 1018.0
20180819170922 73 84 7.0 0.0 0.00 0.00 0.00 57 1017.3
20180819170746 74 120 7.0 0.0 0.00 0.00 0.00 60 1017.9
20180819165745 73 51 7.0 0.0 0.00 0.00 0.00 62 1017.9
20180819165416 73 59 7.0 0.0 0.00 0.00 0.00 60 1017.3
20180819164746 73 112 6.0 0.0 0.00 0.00 0.00 60 1018.0
20180819163919 73 55 5.0 0.0 0.00 0.00 0.00 59 1017.4
20180819163748 73 87 5.0 0.0 0.00 0.00 0.00 60 1017.9
20180819162750 73 51 7.0 0.0 0.00 0.00 0.00 63 1018.0
20180819162424 73 87 7.0 0.0 0.00 0.00 0.00 61 1017.4
20180819161756 73 122 6.0 0.0 0.00 0.00 0.00 65 1018.0
20180819160910 72 117 6.0 0.0 0.00 0.00 0.00 65 1017.4
20180819160739 73 22 7.0 0.0 0.00 0.00 0.00 62 1017.9
20180819155746 73 142 6.0 0.0 0.00 0.00 0.00 62 1018.1
20180819155408 72 85 6.0 0.0 0.00 0.00 0.00 61 1017.5
20180819154746 72 23 9.0 0.0 0.00 0.00 0.00 64 1018.1
20180819153918 71 88 7.0 0.0 0.00 0.00 0.00 62 1017.4
20180819153747 72 111 6.0 0.0 0.00 0.00 0.00 65 1018.0
20180819152746 72 114 6.0 0.0 0.00 0.00 0.00 60 1017.9
20180819152413 72 80 6.0 0.0 0.00 0.00 0.00 67 1017.4
20180819151751 72 35 7.0 0.0 0.00 0.00 0.00 63 1018.1
20180819150925 71 115 9.0 0.0 0.00 0.00 0.00 62 1017.4
20180819150752 71 116 8.0 0.0 0.00 0.00 0.00 60 1018.0
20180819145752 72 53 5.0 0.0 0.00 0.00 0.00 65 1018.1
20180819145304 70 98 5.0 0.0 0.00 0.00 0.00 64 1017.4
20180819144756 71 46 6.0 0.0 0.00 0.00 0.00 63 1018.0
20180819143930 70 86 6.0 0.0 0.00 0.00 0.00 64 1017.2
20180819143758 71 82 6.0 0.0 0.00 0.00 0.00 62 1017.8
20180819142738 70 84 7.0 0.0 0.00 0.00 0.00 67 1017.8
20180819142310 70 117 7.0 0.0 0.00 0.00 0.00 64 1017.2
20180819141745 70 53 8.0 0.0 0.00 0.00 0.00 66 1017.8
20180819140923 69 94 7.0 0.0 0.00 0.00 0.00 65 1017.1
20180819140749 70 109 7.0 0.0 0.00 0.00 0.00 68 1017.8
20180819135754 70 63 7.0 0.0 0.00 0.00 0.00 68 1017.7
20180819135322 69 94 8.0 0.0 0.00 0.00 0.00 72 1017.2
20180819134757 69 107 7.0 0.0 0.00 0.00 0.00 70 1017.8
20180819133757 69 80 6.0 0.0 0.00 0.00 0.00 71 1017.8
20180819133714 69 94 6.0 0.0 0.00 0.00 0.00 73 1017.2
20180819132754 69 70 7.0 0.0 0.00 0.00 0.00 75 1017.7
20180819132218 68 84 6.0 0.0 0.00 0.00 0.00 73 1017.1
20180819131756 68 101 6.0 0.0 0.00 0.00 0.00 73 1017.4
20180819130757 68 76 4.0 0.0 0.00 0.00 0.00 76 1017.4
20180819130716 68 114 4.0 0.0 0.00 0.00 0.00 74 1016.8
20180819125755 69 28 3.0 0.0 0.00 0.00 0.00 76 1017.2
20180819125208 68 69 4.0 0.0 0.00 0.00 0.00 73 1016.8
20180819124741 68 40 4.0 0.0 0.00 0.00 0.00 76 1017.3
20180819123917 67 90 4.0 0.0 0.00 0.00 0.00 80 1016.6
20180819123743 67 48 4.0 0.0 0.00 0.00 0.00 79 1017.1
20180819122745 67 125 2.0 0.0 0.00 0.00 0.00 82 1017.1
20180819122217 66 92 2.0 0.0 0.00 0.00 0.00 82 1016.4
20180819121752 66 24 1.0 0.0 0.00 0.00 0.00 81 1017.1
20180819120754 66 26 1.0 0.0 0.00 0.00 0.00 83 1017.1
20180819120620 65 36 0.0 0.0 0.00 0.00 0.00 83 1016.4
20180819115740 65 24 0.0 0.0 0.00 0.00 0.00 84 1017.0
20180819115206 64 42 1.0 0.0 0.00 0.00 0.00 85 1016.3
20180819114745 64 30 0.0 0.0 0.00 0.00 0.00 85 1016.9
20180819113746 63 22 0.0 0.0 0.00 0.00 0.00 89 1016.7
20180819113612 63 22 0.0 0.0 0.00 0.00 0.00 88 1016.1
20180819112746 62 20 1.0 0.0 0.00 0.00 0.00 89 1016.5
20180819112116 61 5 1.0 0.0 0.00 0.00 0.00 90 1016.0
20180819111750 61 12 1.0 0.0 0.00 0.00 0.00 90 1016.5
20180819110752 60 19 2.0 0.0 0.00 0.00 0.00 90 1016.4
20180819110618 60 13 2.0 0.0 0.00 0.00 0.00 90 1015.7
20180819105750 60 25 2.0 0.0 0.00 0.00 0.00 90 1016.2
20180819105102 60 20 2.0 0.0 0.00 0.00 0.00 90 1015.5
20180819104755 60 5 2.0 0.0 0.00 0.00 0.00 90 1016.1
20180819103740 60 26 2.0 0.0 0.00 0.00 0.00 91 1016.1
20180819103607 60 23 2.0 0.0 0.00 0.00 0.00 91 1015.4
20180819102740 60 20 2.0 0.0 0.00 0.00 0.00 91 1016.0
20180819102113 59 18 2.0 0.0 0.00 0.00 0.00 92 1015.3
20180819101747 60 20 1.0 0.0 0.00 0.00 0.00 92 1015.8
20180819100753 59 355 0.0 0.0 0.00 0.00 0.00 93 1015.7
20180819100614 59 351 0.0 0.0 0.00 0.00 0.00 93 1015.1
20180819095750 59 44 1.0 0.0 0.00 0.00 0.00 93 1015.7
20180819095118 59 300 1.0 0.0 0.00 0.00 0.00 92 1014.9
20180819094752 59 5 1.0 0.0 0.00 0.00 0.00 93 1015.5
20180819093755 59 5 0.0 0.0 0.00 0.00 0.00 93 1015.5
20180819093615 59 5 0.0 0.0 0.00 0.00 0.00 93 1014.8
20180819092755 60 16 1.0 0.0 0.00 0.00 0.00 92 1015.4
20180819092106 59 5 1.0 0.0 0.00 0.00 0.00 92 1014.6
20180819090741 60 16 0.0 0.0 0.00 0.00 0.00 91 1015.3
20180819090614 59 15 0.0 0.0 0.00 0.00 0.00 91 1014.6
20180819085743 61 15 1.0 0.0 0.00 0.00 0.00 91 1015.2
20180819085120 61 17 1.0 0.0 0.00 0.00 0.00 89 1014.4
20180819084750 61 18 2.0 0.0 0.00 0.00 0.00 89 1015.0
20180819083753 61 16 1.0 0.0 0.00 0.00 0.00 90 1015.0
20180819083623 60 11 1.0 0.0 0.00 0.00 0.00 91 1014.3
20180819082754 60 19 1.0 0.0 0.00 0.00 0.00 91 1014.9
20180819082110 60 16 1.0 0.0 0.00 0.00 0.00 92 1014.1
20180819081744 60 24 1.0 0.0 0.00 0.00 0.00 91 1014.8
20180819080746 61 24 0.0 0.0 0.00 0.00 0.00 92 1014.7
20180819080410 60 24 0.0 0.0 0.00 0.00 0.00 92 1014.1
20180819075746 61 21 0.0 0.0 0.00 0.00 0.00 92 1014.8
20180819074927 61 21 0.0 0.0 0.00 0.00 0.00 92 1014.1
20180819074751 62 21 0.0 0.0 0.00 0.00 0.00 91 1014.7
20180819073750 62 22 2.0 0.0 0.00 0.00 0.00 89 1014.7
20180819073412 62 5 2.0 0.0 0.00 0.00 0.00 89 1014.0
20180819072748 62 26 2.0 0.0 0.00 0.00 0.00 91 1014.6
20180819071926 61 19 0.0 0.0 0.00 0.00 0.00 93 1014.0
20180819071753 61 12 0.0 0.0 0.00 0.00 0.00 93 1014.6
20180819070753 61 17 0.0 0.0 0.00 0.00 0.00 93 1014.6
20180819070423 61 17 0.0 0.0 0.00 0.00 0.00 93 1013.9
20180819065755 62 17 0.0 0.0 0.00 0.00 0.00 92 1014.5
20180819064915 62 17 0.0 0.0 0.00 0.00 0.00 92 1013.7
20180819064741 62 17 1.0 0.0 0.00 0.00 0.00 91 1014.4
20180819063744 63 19 1.0 0.0 0.00 0.00 0.00 89 1014.2
20180819063413 62 22 1.0 0.0 0.00 0.00 0.00 90 1013.4
20180819062747 63 30 2.0 0.0 0.00 0.00 0.00 89 1014.2
20180819061928 62 19 2.0 0.0 0.00 0.00 0.00 90 1013.5
20180819061757 63 28 2.0 0.0 0.00 0.00 0.00 90 1014.2
20180819060800 62 14 0.0 0.0 0.00 0.00 0.00 94 1014.2
20180819060406 61 319 0.0 0.0 0.00 0.00 0.00 94 1013.4
20180819055739 62 319 0.0 0.0 0.00 0.00 0.00 94 1014.2
20180819054915 62 319 0.0 0.0 0.00 0.00 0.00 94 1013.4
20180819054743 62 319 0.0 0.0 0.00 0.00 0.00 94 1014.2
20180819053744 62 28 0.0 0.0 0.00 0.00 0.00 94 1014.3
20180819053312 62 28 0.0 0.0 0.00 0.00 0.00 94 1013.4
20180819052744 62 28 0.0 0.0 0.00 0.00 0.00 93 1014.1
20180819051917 62 28 0.0 0.0 0.00 0.00 0.00 92 1013.3
20180819051747 63 28 0.0 0.0 0.00 0.00 0.00 92 1014.1
20180819050752 63 28 0.0 0.0 0.00 0.00 0.00 92 1014.0
20180819050325 63 28 0.0 0.0 0.00 0.00 0.00 91 1013.2
20180819045753 64 29 0.0 0.0 0.00 0.00 0.00 90 1014.0
20180819044930 64 29 0.0 0.0 0.00 0.00 0.00 89 1013.1
20180819044758 64 29 0.0 0.0 0.00 0.00 0.00 88 1013.9
20180819043740 65 67 0.0 0.0 0.00 0.00 0.00 86 1013.8
20180819043309 64 67 0.0 0.0 0.00 0.00 0.00 86 1013.0
20180819042748 65 67 0.0 0.0 0.00 0.00 0.00 86 1013.8
20180819041752 65 69 0.0 0.0 0.00 0.00 0.00 85 1013.8
20180819041717 65 69 0.0 0.0 0.00 0.00 0.00 85 1013.0
20180819040825 65 19 1.0 0.0 0.00 0.00 0.00 85 1013.7
20180819040203 65 29 1.0 0.0 0.00 0.00 0.00 85 1012.9
20180819035758 66 72 1.0 0.0 0.00 0.00 0.04 85 1013.7
20180819034746 66 84 1.0 0.0 0.00 0.00 0.04 86 1013.6
20180819034706 65 83 1.0 0.0 0.00 0.00 0.04 86 1012.8
20180819033749 66 53 1.0 0.0 0.00 0.00 0.04 87 1013.6
20180819033208 65 53 1.0 0.0 0.00 0.00 0.04 87 1012.7
20180819032745 66 59 2.0 0.0 0.00 0.00 0.04 86 1013.5